STARLINK-1300, 45374

Orbit data source: Space-Track

STARLINK-1300, 45374 is a payload satellite owned by SpaceX/Seattle (US) in LEO that was launched on Wed, 18 Mar 2020 UTC via an FALCON 9 launch vehicle from the Air Force Eastern Test Range (AFETR). Payload-class satellites include a variety of spacecraft equipped with specific instruments for various scientific and technological missions. These include communications satellites like Starlink; space stations such as the ISS; scientific satellites like the Hubble; Earth observation satellites from companies like Planet Labs, Umbra, and HawkEye 360; GPS; miniature CubeSats for education and research; and military/defense satellites.

Loading next visibility...
Identifier
45374, 2020-019Q
Orbit
LEO
Country
Flag of USUS
Related business
Manufacturer
SpaceX/Seattle
Mission
Operational Commercial Communications
Bus & Motor
STARLINK, Unknown motor
Mass
260 kg wet, ~248 kg dry
Launch date (UTC)
2020-03-18 (6 years ago)
Launch vehicle
FALCON 9
Launch site
Air Force Eastern Test Range (AFETR)
Object type
Payload
Rocket body
Debris
Shape & HBR
Box + 1 Pan, 10.1 m
Radar Cross Section
13.562 m², Large (>1 m²)

Expand to show TLE details & history
Last TLE update: 1 day ago

TLE from 1 day ago
0 STARLINK-1300
1 45374U 20019Q   25338.42156760  .00008767  00000-0  60639-3 0  9992
2 45374  53.0535 234.2850 0002275  84.5100 275.6148 15.06420405315373
Epoch: 2025-12-04T10:07Z
TLE epoch observation values (Epoch: 2025-12-04T10:07:03.440Z)
Latitude
-0.00006°
Longitude
9.04237°
Altitude
547.874 km
Speed
7.589 km/s
True Right ascension
15h 37m 08s
True Declination
0° 00' 00"
Sunlit
Object was in daylight at epoch
Visualization orbit readout
Latitude
Unknown
Longitude
Unknown
Altitude
Unknown
Speed
Unknown
Apparent Right ascension
Unknown
Apparent Declination
Unknown
Sunlit
N/A
Visualization observer readout
Local Sidereal Time
13:29:54
Azimuth
Unknown
Elevation
Unknown
Doppler factor
Unknown
Orbital elements
Apogee altitude
548.995 km
Perigee altitude
545.844 km
Semi-major axis
6,925.557 km
Eccentricity
0.00023
Inclination
53.0535°
RAAN
234.285°
Arg. of periapsis
84.51°
True anomaly
275.58885°
Mean anomaly
275.6148°
Eccentric anomaly
275.60183°
Mean motion
3.76583 °/min
Orbital period
95.6 mins
BSTAR
0.00060639
Loading maneuver chart data...
Computing Atmospheric mass density...

Documentation

Showing up to 5 results
|